アトラス彗星

C/2023 F3 ( ATLAS )

English version
Home page
Updated on August 30, 2025

---------------------------------------------------------------------

・ プロフィール

発見日 2023年3月28日
発見光度 18.8等
発見者 Asteroid Terrestrial-Impact Last Alert System (ATLAS) search program

・ 写真集

・ 軌道要素

Epoch 2025 May 5.0 TT = JDT 2460800.5
T 2025 Feb. 2.62449 TT                                  Pike
q   5.1907904            (2000.0)            P               Q
z  -0.0006743      Peri.  265.53181     -0.75298466     -0.39308478
 +/-0.0000009      Node   109.46484     -0.09800859     +0.86002283
e   1.0035002      Incl.  145.96359     -0.65069841     +0.32533841
From 749 observations 2023 Mar. 28-2025 July 23, mean residual 0".5.

・ 星図

・ 光度変化

        m1 = 5.5 + 5 logΔ + 10.0 log r

---------------------------------------------------------------------

軌道要素はM.P.E.C. 2025-O159に掲載されたものです。
星図はステラナビゲータ Ver.11 (アストロアーツ) で作成したものです。
光度グラフはComet for Windowsで作成したものです。

---------------------------------------------------------------------

Copyright(C) Seiichi Yoshida (comet@aerith.net). All rights reserved.